SHIJIAN-17 (SJ-17) (41838 NORAD) Tracking and Keplerian Element Data

This shows tracking and keplerian element data for the satellite.

Feedback or suggestion? Click here.




ElementValue
Catalog41838
NameSHIJIAN-17 (SJ-17)
Epoch Orbit1248
Epoch Day93.91177789
Epoch Year2020
RAAN72.7021
Inclination0.0686
Eccentricity0.000165
Argument of Perigee333.3411
Mean Anonmoly229.0316
Mean Motion1.00268055
Decay Rate-3.7E-06
L11 41838U 16065A 20093.91177789 -.00000370 00000-0 00000-0 0 9996
L22 41838 0.0686 72.7021 0001650 333.3411 229.0316 1.00268055 12480

Live tracking and technical data element details for SHIJIAN-17 (SJ-17) (NORAD 41838). SHIJIAN-17 (SJ-17) can be tracked NOW for your location showing map with azimuth and elevation plus other details from your city location.

Track the satellite on the map from your city or location and see movement details for azimuth, elevation, latitude, longitude, range, height, and movement on the map or in text.







IsCatalogInMostPopularTable: catalog: 41838, numindb: 405
Update: records affected: 1



GetName: 41838 SHIJIAN-17 (SJ-17)

Hit Count: updated at: Tue, 07 Apr 2020 23:32:07 GMT